<?xml version="1.0"?>
<gpx xmlns="http://www.topografix.com/GPX/1/1" xmlns:xsi="http://www.w3.org/2001/XMLSchema-instance" version="1.1" creator="GPX RubyGem 1.0.0 -- http://dougfales.github.io/gpx/" xsi:schemaLocation="http://www.topografix.com/GPX/1/1 http://www.topografix.com/GPX/1/1/gpx.xsd">
  <metadata>
    <name/>
    <time>2026-05-07T22:32:07+00:00</time>
    <bound minlat="90.0" minlon="180.0" maxlat="-90.0" maxlon="-180.0"/>
  </metadata>
  <trk>
    <name/>
    <trkseg>
      <trkpt lat="46.128702" lon="6.713013">
        <time>1970-01-01T00:00:00+00:00</time>
        <ele>1683.0</ele>
      </trkpt>
      <trkpt lat="46.128741" lon="6.713179">
        <time>1970-01-01T00:00:00+00:00</time>
        <ele>1685.0</ele>
      </trkpt>
      <trkpt lat="46.128804" lon="6.713309">
        <time>1970-01-01T00:00:00+00:00</time>
        <ele>1685.0</ele>
      </trkpt>
      <trkpt lat="46.128895" lon="6.713406">
        <time>1970-01-01T00:00:00+00:00</time>
        <ele>1686.0</ele>
      </trkpt>
      <trkpt lat="46.129054" lon="6.713478">
        <time>1970-01-01T00:00:00+00:00</time>
        <ele>1685.0</ele>
      </trkpt>
      <trkpt lat="46.129166" lon="6.713466">
        <time>1970-01-01T00:00:00+00:00</time>
        <ele>1685.0</ele>
      </trkpt>
      <trkpt lat="46.129297" lon="6.713413">
        <time>1970-01-01T00:00:00+00:00</time>
        <ele>1684.0</ele>
      </trkpt>
      <trkpt lat="46.129487" lon="6.71322">
        <time>1970-01-01T00:00:00+00:00</time>
        <ele>1686.0</ele>
      </trkpt>
      <trkpt lat="46.129587" lon="6.713028">
        <time>1970-01-01T00:00:00+00:00</time>
        <ele>1687.0</ele>
      </trkpt>
      <trkpt lat="46.129622" lon="6.712907">
        <time>1970-01-01T00:00:00+00:00</time>
        <ele>1687.0</ele>
      </trkpt>
      <trkpt lat="46.129637" lon="6.71304">
        <time>1970-01-01T00:00:00+00:00</time>
        <ele>1688.0</ele>
      </trkpt>
      <trkpt lat="46.129628" lon="6.71352">
        <time>1970-01-01T00:00:00+00:00</time>
        <ele>1691.0</ele>
      </trkpt>
      <trkpt lat="46.12967" lon="6.713694">
        <time>1970-01-01T00:00:00+00:00</time>
        <ele>1693.0</ele>
      </trkpt>
      <trkpt lat="46.129614" lon="6.713913">
        <time>1970-01-01T00:00:00+00:00</time>
        <ele>1694.0</ele>
      </trkpt>
      <trkpt lat="46.129615" lon="6.714139">
        <time>1970-01-01T00:00:00+00:00</time>
        <ele>1696.0</ele>
      </trkpt>
      <trkpt lat="46.129607" lon="6.714432">
        <time>1970-01-01T00:00:00+00:00</time>
        <ele>1700.0</ele>
      </trkpt>
      <trkpt lat="46.129631" lon="6.714661">
        <time>1970-01-01T00:00:00+00:00</time>
        <ele>1701.0</ele>
      </trkpt>
      <trkpt lat="46.12962" lon="6.714696">
        <time>1970-01-01T00:00:00+00:00</time>
        <ele>1702.0</ele>
      </trkpt>
      <trkpt lat="46.129633" lon="6.714783">
        <time>1970-01-01T00:00:00+00:00</time>
        <ele>1702.0</ele>
      </trkpt>
      <trkpt lat="46.129627" lon="6.714903">
        <time>1970-01-01T00:00:00+00:00</time>
        <ele>1704.0</ele>
      </trkpt>
      <trkpt lat="46.129569" lon="6.715357">
        <time>1970-01-01T00:00:00+00:00</time>
        <ele>1710.0</ele>
      </trkpt>
      <trkpt lat="46.129493" lon="6.715686">
        <time>1970-01-01T00:00:00+00:00</time>
        <ele>1714.0</ele>
      </trkpt>
      <trkpt lat="46.129391" lon="6.715919">
        <time>1970-01-01T00:00:00+00:00</time>
        <ele>1715.0</ele>
      </trkpt>
      <trkpt lat="46.129207" lon="6.71624">
        <time>1970-01-01T00:00:00+00:00</time>
        <ele>1716.0</ele>
      </trkpt>
      <trkpt lat="46.129194" lon="6.716323">
        <time>1970-01-01T00:00:00+00:00</time>
        <ele>1717.0</ele>
      </trkpt>
      <trkpt lat="46.12908" lon="6.716584">
        <time>1970-01-01T00:00:00+00:00</time>
        <ele>1717.0</ele>
      </trkpt>
      <trkpt lat="46.129031" lon="6.716742">
        <time>1970-01-01T00:00:00+00:00</time>
        <ele>1718.0</ele>
      </trkpt>
      <trkpt lat="46.129005" lon="6.717588">
        <time>1970-01-01T00:00:00+00:00</time>
        <ele>1729.0</ele>
      </trkpt>
      <trkpt lat="46.128927" lon="6.71784">
        <time>1970-01-01T00:00:00+00:00</time>
        <ele>1736.0</ele>
      </trkpt>
      <trkpt lat="46.128818" lon="6.717961">
        <time>1970-01-01T00:00:00+00:00</time>
        <ele>1738.0</ele>
      </trkpt>
      <trkpt lat="46.128785" lon="6.718037">
        <time>1970-01-01T00:00:00+00:00</time>
        <ele>1740.0</ele>
      </trkpt>
      <trkpt lat="46.128691" lon="6.718138">
        <time>1970-01-01T00:00:00+00:00</time>
        <ele>1744.0</ele>
      </trkpt>
      <trkpt lat="46.128641" lon="6.71825">
        <time>1970-01-01T00:00:00+00:00</time>
        <ele>1747.0</ele>
      </trkpt>
      <trkpt lat="46.12831" lon="6.7186">
        <time>1970-01-01T00:00:00+00:00</time>
        <ele>1761.0</ele>
      </trkpt>
      <trkpt lat="46.128126" lon="6.718818">
        <time>1970-01-01T00:00:00+00:00</time>
        <ele>1769.0</ele>
      </trkpt>
      <trkpt lat="46.128092" lon="6.718884">
        <time>1970-01-01T00:00:00+00:00</time>
        <ele>1771.0</ele>
      </trkpt>
      <trkpt lat="46.127982" lon="6.71902">
        <time>1970-01-01T00:00:00+00:00</time>
        <ele>1777.0</ele>
      </trkpt>
      <trkpt lat="46.127808" lon="6.719117">
        <time>1970-01-01T00:00:00+00:00</time>
        <ele>1780.0</ele>
      </trkpt>
      <trkpt lat="46.127704" lon="6.719129">
        <time>1970-01-01T00:00:00+00:00</time>
        <ele>1780.0</ele>
      </trkpt>
      <trkpt lat="46.127575" lon="6.719216">
        <time>1970-01-01T00:00:00+00:00</time>
        <ele>1782.0</ele>
      </trkpt>
      <trkpt lat="46.127463" lon="6.719356">
        <time>1970-01-01T00:00:00+00:00</time>
        <ele>1784.0</ele>
      </trkpt>
      <trkpt lat="46.127357" lon="6.719625">
        <time>1970-01-01T00:00:00+00:00</time>
        <ele>1791.0</ele>
      </trkpt>
      <trkpt lat="46.127133" lon="6.719623">
        <time>1970-01-01T00:00:00+00:00</time>
        <ele>1795.0</ele>
      </trkpt>
      <trkpt lat="46.127043" lon="6.719669">
        <time>1970-01-01T00:00:00+00:00</time>
        <ele>1798.0</ele>
      </trkpt>
      <trkpt lat="46.126962" lon="6.719757">
        <time>1970-01-01T00:00:00+00:00</time>
        <ele>1801.0</ele>
      </trkpt>
      <trkpt lat="46.126866" lon="6.71994">
        <time>1970-01-01T00:00:00+00:00</time>
        <ele>1793.0</ele>
      </trkpt>
      <trkpt lat="46.127042" lon="6.72042">
        <time>1970-01-01T00:00:00+00:00</time>
        <ele>1796.0</ele>
      </trkpt>
      <trkpt lat="46.127305" lon="6.720626">
        <time>1970-01-01T00:00:00+00:00</time>
        <ele>1821.0</ele>
      </trkpt>
      <trkpt lat="46.127396" lon="6.720768">
        <time>1970-01-01T00:00:00+00:00</time>
        <ele>1822.0</ele>
      </trkpt>
      <trkpt lat="46.127505" lon="6.721014">
        <time>1970-01-01T00:00:00+00:00</time>
        <ele>1811.0</ele>
      </trkpt>
      <trkpt lat="46.127754" lon="6.721215">
        <time>1970-01-01T00:00:00+00:00</time>
        <ele>1810.0</ele>
      </trkpt>
      <trkpt lat="46.127832" lon="6.721314">
        <time>1970-01-01T00:00:00+00:00</time>
        <ele>1816.0</ele>
      </trkpt>
      <trkpt lat="46.127938" lon="6.721365">
        <time>1970-01-01T00:00:00+00:00</time>
        <ele>1826.0</ele>
      </trkpt>
      <trkpt lat="46.127982" lon="6.721424">
        <time>1970-01-01T00:00:00+00:00</time>
        <ele>1830.0</ele>
      </trkpt>
      <trkpt lat="46.128079" lon="6.721575">
        <time>1970-01-01T00:00:00+00:00</time>
        <ele>1833.0</ele>
      </trkpt>
      <trkpt lat="46.128156" lon="6.721791">
        <time>1970-01-01T00:00:00+00:00</time>
        <ele>1831.0</ele>
      </trkpt>
      <trkpt lat="46.128213" lon="6.721856">
        <time>1970-01-01T00:00:00+00:00</time>
        <ele>1835.0</ele>
      </trkpt>
      <trkpt lat="46.128247" lon="6.72196">
        <time>1970-01-01T00:00:00+00:00</time>
        <ele>1835.0</ele>
      </trkpt>
      <trkpt lat="46.128292" lon="6.721989">
        <time>1970-01-01T00:00:00+00:00</time>
        <ele>1839.0</ele>
      </trkpt>
      <trkpt lat="46.128319" lon="6.722072">
        <time>1970-01-01T00:00:00+00:00</time>
        <ele>1841.0</ele>
      </trkpt>
      <trkpt lat="46.128388" lon="6.722165">
        <time>1970-01-01T00:00:00+00:00</time>
        <ele>1848.0</ele>
      </trkpt>
      <trkpt lat="46.128418" lon="6.722285">
        <time>1970-01-01T00:00:00+00:00</time>
        <ele>1848.0</ele>
      </trkpt>
      <trkpt lat="46.128478" lon="6.722364">
        <time>1970-01-01T00:00:00+00:00</time>
        <ele>1851.0</ele>
      </trkpt>
      <trkpt lat="46.128509" lon="6.722463">
        <time>1970-01-01T00:00:00+00:00</time>
        <ele>1851.0</ele>
      </trkpt>
      <trkpt lat="46.128566" lon="6.722506">
        <time>1970-01-01T00:00:00+00:00</time>
        <ele>1858.0</ele>
      </trkpt>
      <trkpt lat="46.128645" lon="6.722632">
        <time>1970-01-01T00:00:00+00:00</time>
        <ele>1864.0</ele>
      </trkpt>
      <trkpt lat="46.128778" lon="6.722735">
        <time>1970-01-01T00:00:00+00:00</time>
        <ele>1875.0</ele>
      </trkpt>
      <trkpt lat="46.128842" lon="6.722749">
        <time>1970-01-01T00:00:00+00:00</time>
        <ele>1880.0</ele>
      </trkpt>
      <trkpt lat="46.128863" lon="6.722733">
        <time>1970-01-01T00:00:00+00:00</time>
        <ele>1882.0</ele>
      </trkpt>
      <trkpt lat="46.128903" lon="6.722777">
        <time>1970-01-01T00:00:00+00:00</time>
        <ele>1885.0</ele>
      </trkpt>
      <trkpt lat="46.129031" lon="6.723086">
        <time>1970-01-01T00:00:00+00:00</time>
        <ele>1899.0</ele>
      </trkpt>
      <trkpt lat="46.129112" lon="6.723159">
        <time>1970-01-01T00:00:00+00:00</time>
        <ele>1905.0</ele>
      </trkpt>
      <trkpt lat="46.129157" lon="6.723289">
        <time>1970-01-01T00:00:00+00:00</time>
        <ele>1909.0</ele>
      </trkpt>
      <trkpt lat="46.129208" lon="6.723348">
        <time>1970-01-01T00:00:00+00:00</time>
        <ele>1912.0</ele>
      </trkpt>
      <trkpt lat="46.129208" lon="6.723348">
        <time>1970-01-01T00:00:00+00:00</time>
        <ele>1912.0</ele>
      </trkpt>
      <trkpt lat="46.129157" lon="6.723289">
        <time>1970-01-01T00:00:00+00:00</time>
        <ele>1909.0</ele>
      </trkpt>
      <trkpt lat="46.129112" lon="6.723159">
        <time>1970-01-01T00:00:00+00:00</time>
        <ele>1905.0</ele>
      </trkpt>
      <trkpt lat="46.129031" lon="6.723086">
        <time>1970-01-01T00:00:00+00:00</time>
        <ele>1899.0</ele>
      </trkpt>
      <trkpt lat="46.128903" lon="6.722777">
        <time>1970-01-01T00:00:00+00:00</time>
        <ele>1885.0</ele>
      </trkpt>
      <trkpt lat="46.128863" lon="6.722733">
        <time>1970-01-01T00:00:00+00:00</time>
        <ele>1882.0</ele>
      </trkpt>
      <trkpt lat="46.128842" lon="6.722749">
        <time>1970-01-01T00:00:00+00:00</time>
        <ele>1880.0</ele>
      </trkpt>
      <trkpt lat="46.128778" lon="6.722735">
        <time>1970-01-01T00:00:00+00:00</time>
        <ele>1875.0</ele>
      </trkpt>
      <trkpt lat="46.128645" lon="6.722632">
        <time>1970-01-01T00:00:00+00:00</time>
        <ele>1864.0</ele>
      </trkpt>
      <trkpt lat="46.128566" lon="6.722506">
        <time>1970-01-01T00:00:00+00:00</time>
        <ele>1858.0</ele>
      </trkpt>
      <trkpt lat="46.128509" lon="6.722463">
        <time>1970-01-01T00:00:00+00:00</time>
        <ele>1851.0</ele>
      </trkpt>
      <trkpt lat="46.128478" lon="6.722364">
        <time>1970-01-01T00:00:00+00:00</time>
        <ele>1851.0</ele>
      </trkpt>
      <trkpt lat="46.128418" lon="6.722285">
        <time>1970-01-01T00:00:00+00:00</time>
        <ele>1848.0</ele>
      </trkpt>
      <trkpt lat="46.128388" lon="6.722165">
        <time>1970-01-01T00:00:00+00:00</time>
        <ele>1848.0</ele>
      </trkpt>
      <trkpt lat="46.128319" lon="6.722072">
        <time>1970-01-01T00:00:00+00:00</time>
        <ele>1841.0</ele>
      </trkpt>
      <trkpt lat="46.128292" lon="6.721989">
        <time>1970-01-01T00:00:00+00:00</time>
        <ele>1839.0</ele>
      </trkpt>
      <trkpt lat="46.128247" lon="6.72196">
        <time>1970-01-01T00:00:00+00:00</time>
        <ele>1835.0</ele>
      </trkpt>
      <trkpt lat="46.128213" lon="6.721856">
        <time>1970-01-01T00:00:00+00:00</time>
        <ele>1835.0</ele>
      </trkpt>
      <trkpt lat="46.128156" lon="6.721791">
        <time>1970-01-01T00:00:00+00:00</time>
        <ele>1831.0</ele>
      </trkpt>
      <trkpt lat="46.128079" lon="6.721575">
        <time>1970-01-01T00:00:00+00:00</time>
        <ele>1833.0</ele>
      </trkpt>
      <trkpt lat="46.127982" lon="6.721424">
        <time>1970-01-01T00:00:00+00:00</time>
        <ele>1830.0</ele>
      </trkpt>
      <trkpt lat="46.127938" lon="6.721365">
        <time>1970-01-01T00:00:00+00:00</time>
        <ele>1826.0</ele>
      </trkpt>
      <trkpt lat="46.127832" lon="6.721314">
        <time>1970-01-01T00:00:00+00:00</time>
        <ele>1816.0</ele>
      </trkpt>
      <trkpt lat="46.127754" lon="6.721215">
        <time>1970-01-01T00:00:00+00:00</time>
        <ele>1810.0</ele>
      </trkpt>
      <trkpt lat="46.127505" lon="6.721014">
        <time>1970-01-01T00:00:00+00:00</time>
        <ele>1811.0</ele>
      </trkpt>
      <trkpt lat="46.127396" lon="6.720768">
        <time>1970-01-01T00:00:00+00:00</time>
        <ele>1822.0</ele>
      </trkpt>
      <trkpt lat="46.127305" lon="6.720626">
        <time>1970-01-01T00:00:00+00:00</time>
        <ele>1821.0</ele>
      </trkpt>
      <trkpt lat="46.127042" lon="6.72042">
        <time>1970-01-01T00:00:00+00:00</time>
        <ele>1796.0</ele>
      </trkpt>
      <trkpt lat="46.126866" lon="6.71994">
        <time>1970-01-01T00:00:00+00:00</time>
        <ele>1793.0</ele>
      </trkpt>
      <trkpt lat="46.126962" lon="6.719757">
        <time>1970-01-01T00:00:00+00:00</time>
        <ele>1801.0</ele>
      </trkpt>
      <trkpt lat="46.127043" lon="6.719669">
        <time>1970-01-01T00:00:00+00:00</time>
        <ele>1798.0</ele>
      </trkpt>
      <trkpt lat="46.127133" lon="6.719623">
        <time>1970-01-01T00:00:00+00:00</time>
        <ele>1795.0</ele>
      </trkpt>
      <trkpt lat="46.127357" lon="6.719625">
        <time>1970-01-01T00:00:00+00:00</time>
        <ele>1791.0</ele>
      </trkpt>
      <trkpt lat="46.127463" lon="6.719356">
        <time>1970-01-01T00:00:00+00:00</time>
        <ele>1784.0</ele>
      </trkpt>
      <trkpt lat="46.127575" lon="6.719216">
        <time>1970-01-01T00:00:00+00:00</time>
        <ele>1782.0</ele>
      </trkpt>
      <trkpt lat="46.127704" lon="6.719129">
        <time>1970-01-01T00:00:00+00:00</time>
        <ele>1780.0</ele>
      </trkpt>
      <trkpt lat="46.127808" lon="6.719117">
        <time>1970-01-01T00:00:00+00:00</time>
        <ele>1780.0</ele>
      </trkpt>
      <trkpt lat="46.127982" lon="6.71902">
        <time>1970-01-01T00:00:00+00:00</time>
        <ele>1777.0</ele>
      </trkpt>
      <trkpt lat="46.128092" lon="6.718884">
        <time>1970-01-01T00:00:00+00:00</time>
        <ele>1771.0</ele>
      </trkpt>
      <trkpt lat="46.128126" lon="6.718818">
        <time>1970-01-01T00:00:00+00:00</time>
        <ele>1769.0</ele>
      </trkpt>
      <trkpt lat="46.12831" lon="6.7186">
        <time>1970-01-01T00:00:00+00:00</time>
        <ele>1761.0</ele>
      </trkpt>
      <trkpt lat="46.128641" lon="6.71825">
        <time>1970-01-01T00:00:00+00:00</time>
        <ele>1747.0</ele>
      </trkpt>
      <trkpt lat="46.128691" lon="6.718138">
        <time>1970-01-01T00:00:00+00:00</time>
        <ele>1744.0</ele>
      </trkpt>
      <trkpt lat="46.128785" lon="6.718037">
        <time>1970-01-01T00:00:00+00:00</time>
        <ele>1740.0</ele>
      </trkpt>
      <trkpt lat="46.128818" lon="6.717961">
        <time>1970-01-01T00:00:00+00:00</time>
        <ele>1738.0</ele>
      </trkpt>
      <trkpt lat="46.128927" lon="6.71784">
        <time>1970-01-01T00:00:00+00:00</time>
        <ele>1736.0</ele>
      </trkpt>
      <trkpt lat="46.129005" lon="6.717588">
        <time>1970-01-01T00:00:00+00:00</time>
        <ele>1729.0</ele>
      </trkpt>
      <trkpt lat="46.129031" lon="6.716742">
        <time>1970-01-01T00:00:00+00:00</time>
        <ele>1718.0</ele>
      </trkpt>
      <trkpt lat="46.12908" lon="6.716584">
        <time>1970-01-01T00:00:00+00:00</time>
        <ele>1717.0</ele>
      </trkpt>
      <trkpt lat="46.129194" lon="6.716323">
        <time>1970-01-01T00:00:00+00:00</time>
        <ele>1717.0</ele>
      </trkpt>
      <trkpt lat="46.129207" lon="6.71624">
        <time>1970-01-01T00:00:00+00:00</time>
        <ele>1716.0</ele>
      </trkpt>
      <trkpt lat="46.129391" lon="6.715919">
        <time>1970-01-01T00:00:00+00:00</time>
        <ele>1715.0</ele>
      </trkpt>
      <trkpt lat="46.129493" lon="6.715686">
        <time>1970-01-01T00:00:00+00:00</time>
        <ele>1714.0</ele>
      </trkpt>
      <trkpt lat="46.129569" lon="6.715357">
        <time>1970-01-01T00:00:00+00:00</time>
        <ele>1710.0</ele>
      </trkpt>
      <trkpt lat="46.129627" lon="6.714903">
        <time>1970-01-01T00:00:00+00:00</time>
        <ele>1704.0</ele>
      </trkpt>
      <trkpt lat="46.129633" lon="6.714783">
        <time>1970-01-01T00:00:00+00:00</time>
        <ele>1702.0</ele>
      </trkpt>
      <trkpt lat="46.12962" lon="6.714696">
        <time>1970-01-01T00:00:00+00:00</time>
        <ele>1702.0</ele>
      </trkpt>
      <trkpt lat="46.129631" lon="6.714661">
        <time>1970-01-01T00:00:00+00:00</time>
        <ele>1701.0</ele>
      </trkpt>
      <trkpt lat="46.129607" lon="6.714432">
        <time>1970-01-01T00:00:00+00:00</time>
        <ele>1700.0</ele>
      </trkpt>
      <trkpt lat="46.129615" lon="6.714139">
        <time>1970-01-01T00:00:00+00:00</time>
        <ele>1696.0</ele>
      </trkpt>
      <trkpt lat="46.129614" lon="6.713913">
        <time>1970-01-01T00:00:00+00:00</time>
        <ele>1694.0</ele>
      </trkpt>
      <trkpt lat="46.12967" lon="6.713694">
        <time>1970-01-01T00:00:00+00:00</time>
        <ele>1693.0</ele>
      </trkpt>
      <trkpt lat="46.129628" lon="6.71352">
        <time>1970-01-01T00:00:00+00:00</time>
        <ele>1691.0</ele>
      </trkpt>
      <trkpt lat="46.129637" lon="6.71304">
        <time>1970-01-01T00:00:00+00:00</time>
        <ele>1688.0</ele>
      </trkpt>
      <trkpt lat="46.129622" lon="6.712907">
        <time>1970-01-01T00:00:00+00:00</time>
        <ele>1687.0</ele>
      </trkpt>
      <trkpt lat="46.129587" lon="6.713028">
        <time>1970-01-01T00:00:00+00:00</time>
        <ele>1687.0</ele>
      </trkpt>
      <trkpt lat="46.129487" lon="6.71322">
        <time>1970-01-01T00:00:00+00:00</time>
        <ele>1686.0</ele>
      </trkpt>
      <trkpt lat="46.129297" lon="6.713413">
        <time>1970-01-01T00:00:00+00:00</time>
        <ele>1684.0</ele>
      </trkpt>
      <trkpt lat="46.129166" lon="6.713466">
        <time>1970-01-01T00:00:00+00:00</time>
        <ele>1685.0</ele>
      </trkpt>
      <trkpt lat="46.129054" lon="6.713478">
        <time>1970-01-01T00:00:00+00:00</time>
        <ele>1685.0</ele>
      </trkpt>
      <trkpt lat="46.128895" lon="6.713406">
        <time>1970-01-01T00:00:00+00:00</time>
        <ele>1686.0</ele>
      </trkpt>
      <trkpt lat="46.128804" lon="6.713309">
        <time>1970-01-01T00:00:00+00:00</time>
        <ele>1685.0</ele>
      </trkpt>
      <trkpt lat="46.128741" lon="6.713179">
        <time>1970-01-01T00:00:00+00:00</time>
        <ele>1685.0</ele>
      </trkpt>
      <trkpt lat="46.128702" lon="6.713013">
        <time>1970-01-01T00:00:00+00:00</time>
        <ele>1683.0</ele>
      </trkpt>
    </trkseg>
  </trk>
</gpx>
